Flag for U.S.A. Weather past 2 weeks in Tyler, Texas, U.S.A.

Now
81 °F

Sunny.


Feels Like: 81 °F
Forecast: 55 / 80 °F
Wind: 9 mph from Northeast

Location: Tyler Pounds Field

Current Time: Oct 21, 2014 at 3:34:44 PM

Latest Report: Oct 21, 2014 at 2:53 PM


Visibility: 10 mi

Pressure: 30.03 "Hg

Humidity: 45%

Dew point: 58 °F

Location of TylerLocation

Historic Weather in Tyler — Graph

°F

Tyler temperature yesterday

Maximum temperature yesterday: 80 °F (at 3:53 PM)
Minimum temperature yesterday: 55 °F (at 6:53 AM)
Average temperature yesterday: 66 °F

Past Weeks' High & Low Weather Summary

 TemperatureHumidityPressure
High90 °F (Oct 7, 3:53 PM)100% (Oct 11, 5:53 AM)30.17 "Hg (Oct 11, 5:53 AM)
Low50 °F (Oct 15, 1:53 AM)27% (Oct 14, 4:53 PM)29.62 "Hg (Oct 13, 3:53 AM)
Average70 °F72%29.96 "Hg
* Reported Oct 6 1:53 PM — Oct 21 1:53 PM, Tyler, Weather by CustomWeather, © 2014

Note: Actual official high and low records may vary slightly from our data, if they occured in-between our weather recording intervals... More about our weather records

Advertising

Tyler weather history for previous 24 hours

 ConditionsComfort  
Time TempWeatherWind HumidityBarometerVisibility
1:53 PM
Oct 21
80 °FPassing clouds.N/A44%30.05 "Hg10 mi
12:53 PM78 °FSunny.7 mph40%30.08 "Hg10 mi
11:53 AM76 °FSunny.9 mph43%30.10 "Hg10 mi
10:53 AM73 °FSunny.3 mph50%30.11 "Hg10 mi
9:53 AM69 °FSunny.No wind59%30.11 "Hg10 mi
8:53 AM63 °FSunny.No wind78%30.10 "Hg9 mi
7:53 AM57 °FClear.No wind87%30.07 "Hg8 mi
6:53 AM57 °FClear.No wind87%30.05 "Hg10 mi
5:53 AM56 °FClear.No wind87%30.03 "Hg9 mi
4:53 AM57 °FClear.No wind87%30.02 "Hg10 mi
3:53 AM59 °FClear.No wind84%30.02 "Hg10 mi
2:53 AM60 °FClear.No wind80%30.02 "Hg10 mi
1:53 AM59 °FClear.3 mph84%30.03 "Hg10 mi
12:53 AM62 °FClear.No wind78%30.02 "Hg10 mi
11:53 PM
Oct 20
64 °FClear.No wind73%30.03 "Hg10 mi
10:53 PM63 °FClear.No wind78%30.05 "Hg10 mi
9:53 PM66 °FClear.No wind73%30.04 "Hg10 mi
8:53 PM66 °FClear.No wind73%30.03 "Hg10 mi
7:53 PM67 °FClear.5 mph73%30.02 "Hg10 mi
6:53 PM74 °FSunny.No wind53%30.01 "Hg10 mi
5:53 PM78 °FSunny.6 mph43%30.01 "Hg10 mi
4:53 PM79 °FSunny.6 mph42%30.00 "Hg10 mi
3:53 PM80 °FSunny.6 mph39%30.01 "Hg10 mi
Weather by CustomWeather, © 2014

See weather overviewHow to use our weather pages